Regional Weather Roundup
Issued by NWS

Home | Current Version | Previous Version | Graphics & Text | Print | Product List | Glossary On
Versions: 1 2 3 4 5 6 7 8 9 10 11 12 13 14 15 16 17 18 19 20 21 22 23 24 25 26 27 28 29 30 31 32 33 34 35 36 37 38 39 40 41 42 43 44 45 46 47 48 49 50
850
ASUS43 KIND 262259
RWRIN

WEATHER ROUNDUP FOR INDIANA
NATIONAL WEATHER SERVICE INDIANAPOLIS IN
700 PM EDT FRI AUG 26 2016

NOTE: "FAIR" INDICATES FEW OR NO CLOUDS BELOW 12,000 FEET WITH NO
SIGNIFICANT WEATHER AND/OR OBSTRUCTIONS TO VISIBILITY.

* - STATION DOES NOT REPORT WEATHER SUCH AS PRECIPITATION OR FOG.

+ - STATION NOT QUALITY CONTROLLED BY THE NATIONAL WEATHER SERVICE.
    USE DATA WITH CAUTION...ESPECIALLY DEWPOINT AND RELATIVE
    HUMIDITY OBSERVATIONS.

INZ001>003-010>013-019-020-270000-
NORTHWEST INDIANA

CITY           SKY/WX    TMP DP  RH WIND       PRES   REMARKS
GARY /AIRPORT/ PTSUNNY   75  68  78 NE7       30.12F
KNOX *+        CLOUDY    75  46  35 NE6       30.10F
MONTICELLO +   LGT RAIN  78  69  75 NE3       30.08S

$$

LMZ046-743>745-270000-
SOUTHERN LAKE MICHIGAN

STATION/POSITION TIME  TEMP    WIND        PRES    WAVE
                       AIR SEA DIR/SP/G            HT
                 (UTC) (F)     (DEG/KT/KT) (MB)    (FT)
BURNS HARBOR     2201   74      50/ 10/ 13 1020.3S
MICHIGAN CITY    2200   73      10/ 12/ 12   N/A
5NW MICH CITY    2200   74 75   40/ 10/ 12   N/A     2

$$

INZ004-005-014>016-021>024-270000-
NORTH CENTRAL INDIANA

CITY           SKY/WX    TMP DP  RH WIND       PRES   REMARKS
GOSHEN         CLOUDY    78  65  63 NE5       30.11F
PERU/GRISSOM   CLOUDY    77  73  88 NE6       30.08F
SOUTH BEND     CLOUDY    80  66  62 NW3       30.12S

$$

INZ006>009-017-018-025>027-270000-
NORTHEAST INDIANA

CITY           SKY/WX    TMP DP  RH WIND       PRES   REMARKS
ANGOLA *+      SUNNY     79  70  73 CALM      30.13F
FORT WAYNE     CLOUDY    81  66  60 SE3       30.11S

$$

INZ028-029-035-036-043>045-051>053-270000-
WEST CENTRAL INDIANA

CITY           SKY/WX    TMP DP  RH WIND       PRES   REMARKS
CRAWFORDSVL +  LGT RAIN  71  71 100 CALM      30.10R
LAFAYETTE      CLOUDY    78  72  81 NE6       30.06F
TERRE HAUTE    CLOUDY    76  72  87 CALM      30.07F

$$

INZ030>032-037>040-046>048-054>057-064-065-270000-
CENTRAL INDIANA

CITY           SKY/WX    TMP DP  RH WIND       PRES   REMARKS
COLUMBUS       MOSUNNY   77  73  88 NW8       30.09R
INDIANAPOLIS   TSTM      73  71  93 E12       30.13R FOG
-EAGLE CREEK   TSTM      73  70  90 SE13G25   30.13R FOG
KOKOMO *+      CLOUDY    77  73  88 NE6       30.10R
MT COMFORT *+  CLOUDY    72  68  88 W17G26    30.13R
SHELBYVILLE    MOSUNNY   80  71  74 NW8       30.11R

$$

INZ033-034-041-042-049-050-058-059-270000-
EAST CENTRAL INDIANA

CITY           SKY/WX    TMP DP  RH WIND       PRES   REMARKS
MUNCIE         CLOUDY    82  74  76 NE3       30.11R

$$

INZ060-061-067>069-081>083-085>088-270000-
SOUTHWEST INDIANA

CITY           SKY/WX    TMP DP  RH WIND       PRES   REMARKS
EVANSVILLE     PTSUNNY   83  69  62 E3        30.04F
HUNTINGBURG *+ CLOUDY    88  73  62 CALM      30.05S HX  96

$$

INZ062-063-066-070>080-084-089>092-270000-
SOUTH CENTRAL AND SOUTHEAST INDIANA

CITY           SKY/WX    TMP DP  RH WIND       PRES   REMARKS
BLOOMINGTON    CLOUDY    82  69  64 N12       30.09R
MADISON *+     SUNNY     88  72  58 CALM      30.09S

$$





USA.gov is the U.S. government's official web portal to all federal, state and local government web resources and services.